DW5735 Weather Reports


Display with metric or nautical units.
time (UTC)temp
F
wind
direction
speed
MPH
gust
MPH
rain 1hr
in
rain 24hr
in
rain mn
in
humidity
%
barometer
mb
20240521105331 57 170 3.0 12.0 0.00 0.08 0.00 49 1014.9
20240521104831 57 180 7.0 11.0 0.00 0.08 0.00 49 1015.0
20240521104600 56 188 5.0 10.0 0.00 0.02 0.00 49 1014.6
20240521104335 57 156 6.0 13.0 0.00 0.08 0.00 49 1015.0
20240521103821 57 165 7.0 13.0 0.00 0.08 0.00 48 1014.9
20240521103339 57 195 6.0 16.0 0.00 0.08 0.00 48 1014.9
20240521103112 57 181 5.0 16.0 0.00 0.02 0.00 48 1014.6
20240521102822 57 126 10.0 16.0 0.00 0.08 0.00 48 1014.9
20240521102320 57 174 7.0 14.0 0.00 0.08 0.00 47 1014.9
20240521101821 57 146 5.0 12.0 0.00 0.08 0.00 48 1014.9
20240521101610 57 146 6.0 12.0 0.00 0.02 0.00 47 1014.5
20240521101330 58 211 6.0 12.0 0.00 0.08 0.00 47 1014.9
20240521100832 58 212 5.0 9.0 0.00 0.08 0.00 48 1015.0
20240521100340 58 205 4.0 9.0 0.00 0.08 0.00 48 1014.9
20240521100103 58 204 3.0 9.0 0.00 0.02 0.00 48 1014.6
20240521095831 58 195 5.0 12.0 0.00 0.08 0.00 48 1014.9
20240521095328 58 207 5.0 12.0 0.00 0.08 0.00 48 1014.9
20240521094840 58 179 5.0 10.0 0.00 0.08 0.00 48 1014.9
20240521094623 58 261 4.0 10.0 0.00 0.02 0.00 49 1014.6
20240521094325 58 222 4.0 13.0 0.00 0.08 0.00 47 1015.0
20240521093821 58 269 7.0 13.0 0.00 0.08 0.00 47 1015.0
20240521093334 58 228 4.0 8.0 0.00 0.08 0.00 47 1015.0
20240521093110 58 186 2.0 8.0 0.00 0.02 0.00 47 1014.6
20240521092821 58 203 3.0 11.0 0.00 0.08 0.00 49 1014.9
20240521092327 58 211 4.0 15.0 0.00 0.08 0.00 51 1015.0
20240521091845 58 224 7.0 15.0 0.00 0.08 0.00 50 1015.1
20240521091610 58 214 4.0 10.0 0.00 0.02 0.00 47 1014.7
20240521091343 58 191 3.0 7.0 0.00 0.08 0.00 47 1015.1
20240521090825 58 160 1.0 6.0 0.00 0.08 0.00 47 1015.1
20240521090331 59 225 2.0 12.0 0.00 0.08 0.00 46 1015.1
20240521090014 58 242 3.0 14.0 0.00 0.02 0.00 46 1014.9
20240521085840 59 280 5.0 14.0 0.00 0.08 0.00 46 1015.2
20240521085327 59 186 7.0 14.0 0.00 0.08 0.00 45 1015.2
20240521084829 59 233 5.0 11.0 0.00 0.08 0.00 45 1015.1
20240521084615 59 184 3.0 11.0 0.00 0.02 0.00 45 1014.8
20240521084327 59 187 4.0 11.0 0.00 0.08 0.00 45 1015.2
20240521083828 59 141 4.0 9.0 0.00 0.08 0.00 45 1015.1
20240521083319 59 162 4.0 10.0 0.00 0.08 0.00 45 1015.1
20240521083107 59 226 4.0 12.0 0.00 0.02 0.00 45 1014.8
20240521082850 59 157 4.0 13.0 0.00 0.08 0.00 45 1015.1
20240521082329 59 156 7.0 13.0 0.00 0.08 0.00 44 1015.1
20240521081827 59 176 6.0 11.0 0.00 0.08 0.00 44 1015.1
20240521081608 59 173 5.0 11.0 0.00 0.02 0.00 44 1014.8
20240521081347 59 163 2.0 8.0 0.00 0.08 0.00 44 1015.1
20240521080827 59 167 4.0 13.0 0.00 0.08 0.00 44 1015.1
20240521080319 60 123 5.0 14.0 0.00 0.08 0.00 44 1015.2
20240521075837 60 163 3.0 14.0 0.00 0.08 0.00 44 1015.2
20240521075337 60 235 6.0 14.0 0.00 0.08 0.00 44 1015.1
20240521074821 60 146 8.0 14.0 0.00 0.08 0.00 43 1015.1
20240521074644 59 184 6.0 10.0 0.00 0.02 0.00 44 1014.8
20240521074338 60 219 2.0 8.0 0.00 0.08 0.00 45 1015.1
20240521073825 60 159 3.0 8.0 0.00 0.08 0.00 45 1015.1
20240521073337 60 203 4.0 11.0 0.00 0.08 0.00 46 1015.1
20240521073103 60 256 4.0 11.0 0.00 0.02 0.00 46 1014.8
20240521072835 60 119 6.0 12.0 0.00 0.08 0.00 45 1015.1
20240521072324 60 197 3.0 12.0 0.00 0.08 0.00 54 1015.1
20240521071819 60 215 3.0 9.0 0.00 0.08 0.00 46 1015.0
20240521071605 60 145 2.0 9.0 0.00 0.02 0.00 46 1014.7
20240521071319 60 207 5.0 9.0 0.00 0.08 0.00 49 1015.0
20240521070831 60 219 3.0 9.0 0.00 0.08 0.00 45 1015.0
20240521070328 61 174 5.0 9.0 0.00 0.08 0.00 44 1015.0
20240521070003 60 229 5.0 9.0 0.00 0.02 0.00 48 1014.7
20240521065845 61 260 6.0 9.0 0.00 0.08 0.02 49 1015.0
20240521065337 61 200 4.0 9.0 0.00 0.08 0.02 45 1015.0
20240521064842 60 214 4.0 10.0 0.00 0.08 0.02 46 1014.9
20240521064623 60 217 5.0 8.0 0.00 0.02 0.02 46 1014.7
20240521064420 60 169 4.0 8.0 0.00 0.08 0.02 48 1014.9
20240521063829 61 255 3.0 7.0 0.00 0.08 0.02 44 1014.9
20240521063334 60 239 3.0 6.0 0.00 0.08 0.02 45 1014.9
20240521063117 60 151 2.0 6.0 0.00 0.02 0.02 46 1014.6
20240521062825 61 159 1.0 5.0 0.00 0.08 0.02 47 1014.9
20240521062330 61 134 1.0 5.0 0.00 0.08 0.02 44 1014.9
20240521061833 61 229 1.0 7.0 0.00 0.08 0.02 43 1014.9
20240521061612 60 232 3.0 7.0 0.00 0.02 0.02 42 1014.5
20240521061318 61 212 3.0 7.0 0.00 0.08 0.02 42 1014.8
20240521060837 61 214 4.0 7.0 0.00 0.08 0.02 43 1014.8
20240521060340 61 226 3.0 9.0 0.00 0.08 0.02 44 1014.8
20240521060113 61 211 4.0 9.0 0.00 0.02 0.02 42 1014.4
20240521055858 61 159 4.0 8.0 0.00 0.08 0.02 43 1014.8
20240521055329 61 212 3.0 5.0 0.00 0.08 0.02 45 1014.8
20240521054819 61 172 2.0 5.0 0.00 0.08 0.02 43 1014.9
20240521054326 62 221 2.0 10.0 0.00 0.08 0.02 43 1014.8
20240521053852 62 190 4.0 10.0 0.00 0.08 0.02 42 1014.8
20240521053320 62 139 3.0 10.0 0.00 0.08 0.02 42 1014.8
20240521053120 61 203 5.0 10.0 0.00 0.02 0.02 42 1014.6
20240521052837 62 165 4.0 10.0 0.00 0.08 0.02 42 1014.8
20240521052343 62 110 4.0 10.0 0.00 0.08 0.02 43 1014.8
20240521051819 62 149 3.0 9.0 0.00 0.08 0.02 45 1014.8
20240521051603 62 152 2.0 13.0 0.00 0.02 0.02 48 1014.5
20240521050832 63 240 10.0 17.0 0.00 0.08 0.02 54 1014.7
20240521050325 63 246 11.0 19.0 0.00 0.08 0.02 49 1014.7
20240521050023 63 249 13.0 21.0 0.00 0.02 0.02 49 1014.3
20240521045842 63 243 15.0 21.0 0.00 0.08 0.02 45 1014.6
20240521045345 63 245 15.0 19.0 0.00 0.08 0.02 48 1014.5
20240521044827 63 238 11.0 21.0 0.00 0.08 0.02 55 1014.5
20240521044507 63 248 16.0 21.0 0.00 0.02 0.02 45 1014.2
20240521044331 63 243 18.0 21.0 0.00 0.08 0.02 49 1014.5
20240521043834 63 251 13.0 20.0 0.00 0.08 0.02 46 1014.5
20240521043323 63 232 5.0 10.0 0.00 0.08 0.02 41 1014.5
20240521043019 62 214 5.0 10.0 0.00 0.02 0.02 41 1014.2
20240521042834 62 186 5.0 10.0 0.00 0.08 0.02 43 1014.6
20240521042339 62 236 3.0 6.0 0.00 0.08 0.02 42 1014.6
20240521041820 62 204 1.0 3.0 0.00 0.08 0.02 43 1014.6
20240521041605 61 196 1.0 3.0 0.00 0.02 0.02 43 1014.4
20240521041320 62 167 1.0 3.0 0.00 0.08 0.02 44 1014.7
20240521040840 63 228 1.0 4.0 0.00 0.08 0.02 42 1014.6
20240521040319 63 183 2.0 5.0 0.00 0.08 0.02 42 1014.6
20240521040106 63 169 2.0 5.0 0.00 0.02 0.02 42 1014.3
20240521035830 64 260 2.0 5.0 0.00 0.08 0.02 41 1014.6
20240521035326 64 188 2.0 5.0 0.00 0.08 0.02 42 1014.6
20240521034821 64 171 3.0 12.0 0.00 0.08 0.02 42 1014.6
20240521034555 64 211 2.0 12.0 0.00 0.02 0.02 42 1014.3
20240521034333 65 219 7.0 13.0 0.00 0.08 0.02 42 1014.6
20240521033824 64 224 9.0 13.0 0.00 0.08 0.02 44 1014.6
20240521033322 64 201 7.0 16.0 0.00 0.08 0.02 46 1014.5
20240521032826 65 248 10.0 16.0 0.00 0.08 0.02 49 1014.5
20240521032334 65 228 11.0 17.0 0.00 0.08 0.02 43 1014.5
20240521031842 65 245 12.0 19.0 0.00 0.08 0.02 52 1014.4
20240521031608 64 225 13.0 19.0 0.00 0.02 0.02 49 1014.2
20240521031324 65 239 16.0 20.0 0.00 0.08 0.02 48 1014.4
20240521030829 64 223 5.0 17.0 0.00 0.08 0.02 49 1014.4
20240521030321 63 219 6.0 13.0 0.00 0.08 0.02 53 1014.5
20240521030109 63 235 0.0 2.0 0.00 0.02 0.02 55 1014.2
20240521025852 64 260 0.0 1.0 0.00 0.08 0.02 52 1014.5
20240521025337 65 226 0.0 1.0 0.00 0.08 0.02 50 1014.4
20240521024825 67 277 0.0 1.0 0.00 0.08 0.02 47 1014.5
20240521024515 67 276 0.0 1.0 0.00 0.02 0.02 43 1014.2
20240521024336 68 278 0.0 0.0 0.00 0.08 0.02 40 1014.4
20240521023843 68 278 0.0 0.0 0.00 0.08 0.02 41 1014.3
20240521023337 67 278 0.0 1.0 0.00 0.08 0.02 43 1014.3
20240521023116 67 278 0.0 2.0 0.00 0.02 0.02 43 1014.1
20240521022822 67 278 0.0 2.0 0.00 0.08 0.02 46 1014.4
20240521022321 67 276 1.0 2.0 0.00 0.08 0.02 44 1014.3
20240521021822 67 257 0.0 2.0 0.00 0.08 0.02 43 1014.3
20240521021607 67 256 0.0 2.0 0.00 0.02 0.02 42 1014.1
20240521021326 67 256 0.0 2.0 0.00 0.08 0.02 46 1014.4
20240521020829 67 193 0.0 1.0 0.00 0.08 0.02 43 1014.4
20240521020325 67 188 0.0 3.0 0.00 0.08 0.02 48 1014.3
20240521020102 66 293 0.0 3.0 0.00 0.02 0.02 45 1014.1
20240521015824 66 302 1.0 4.0 0.00 0.08 0.02 41 1014.4
20240521015338 66 297 2.0 4.0 0.00 0.08 0.02 49 1014.4
20240521014837 67 203 1.0 4.0 0.00 0.08 0.02 37 1014.4
20240521014607 66 162 2.0 4.0 0.00 0.02 0.02 39 1014.2
20240521014329 66 139 1.0 3.0 0.00 0.08 0.02 42 1014.5
20240521013823 65 143 1.0 3.0 0.00 0.08 0.02 45 1014.6
20240521013319 65 194 1.0 1.0 0.00 0.08 0.02 50 1014.6
20240521013111 64 236 0.0 1.0 0.00 0.02 0.02 51 1014.3
20240521012822 65 236 0.0 2.0 0.00 0.08 0.02 51 1014.6
20240521012340 65 239 1.0 2.0 0.04 0.08 0.02 56 1014.6
20240521011823 65 253 1.0 2.0 0.08 0.08 0.02 43 1014.7
20240521011354 65 196 0.0 2.0 0.08 0.08 0.02 46 1014.7
20240521010844 64 164 1.0 3.0 0.08 0.08 0.02 49 1014.7
20240521010129 63 172 0.0 4.0 0.02 0.02 0.02 52 1014.6
20240521005840 64 174 2.0 4.0 0.08 0.08 0.02 51 1014.9
20240521005328 64 159 2.0 4.0 0.08 0.08 0.02 54 1014.9
20240521004844 64 169 1.0 4.0 0.08 0.08 0.02 53 1015.0
20240521004606 63 197 1.0 4.0 0.02 0.02 0.02 53 1014.7
20240521004341 63 137 1.0 5.0 0.08 0.08 0.02 52 1014.9
20240521003826 63 113 3.0 5.0 0.08 0.08 0.02 54 1014.9
20240521003344 64 105 3.0 9.0 0.08 0.08 0.02 50 1014.9
20240521003111 64 166 3.0 9.0 0.02 0.02 0.02 49 1014.8
20240521002825 65 101 5.0 10.0 0.08 0.08 0.02 50 1015.0
20240521002328 66 191 3.0 20.0 0.04 0.04 0.01 38 1015.2
20240521001507 65 295 13.0 27.0 0.00 0.00 0.00 40 1015.3
20240521001332 66 238 20.0 27.0 0.00 0.00 0.00 36 1015.4
20240521000836 66 237 12.0 14.0 0.00 0.00 0.00 45 1015.1
20240521000318 67 217 6.0 13.0 0.00 0.00 0.00 37 1015.0
20240521000013 67 211 8.0 13.0 0.00 0.00 0.00 43 1014.7
20240520235835 68 250 7.0 9.0 0.00 0.00 0.00 38 1014.9
20240520235329 68 241 5.0 8.0 0.00 0.00 0.00 33 1014.9
20240520234850 68 246 4.0 9.0 0.00 0.00 0.00 32 1014.9
20240520234609 68 238 3.0 9.0 0.00 0.00 0.00 33 1014.7
20240520233823 68 249 5.0 9.0 0.00 0.00 0.00 39 1015.0
20240520233330 68 210 5.0 9.0 0.00 0.00 0.00 35 1015.1
20240520233057 67 242 8.0 9.0 0.00 0.00 0.00 44 1015.0
20240520232838 67 229 7.0 9.0 0.00 0.00 0.00 41 1015.1
20240520232335 67 246 7.0 9.0 0.00 0.00 0.00 41 1015.2
20240520231852 67 250 5.0 6.0 0.00 0.00 0.00 40 1015.1
20240520231627 67 261 4.0 5.0 0.00 0.00 0.00 42 1015.0
20240520231320 67 250 3.0 4.0 0.00 0.00 0.00 39 1015.3
20240520230841 67 257 2.0 3.0 0.00 0.00 0.00 40 1015.4
20240520230320 67 248 3.0 3.0 0.00 0.00 0.00 36 1015.4
20240520225821 67 257 1.0 2.0 0.00 0.00 0.00 36 1015.4
20240520225331 67 338 0.0 3.0 0.00 0.00 0.00 39 1015.5
20240520224846 66 347 2.0 3.0 0.00 0.00 0.00 41 1015.5
20240520224613 65 5 2.0 3.0 0.00 0.00 0.00 41 1015.4
20240520224325 66 329 2.0 3.0 0.00 0.00 0.00 43 1015.6
20240520223835 66 328 2.0 4.0 0.00 0.00 0.00 40 1015.6
20240520223329 66 333 3.0 5.0 0.00 0.00 0.00 37 1015.7
20240520223013 66 335 3.0 5.0 0.00 0.00 0.00 40 1015.5
20240520222834 67 318 4.0 5.0 0.00 0.00 0.00 38 1015.8
20240520222319 67 291 3.0 5.0 0.00 0.00 0.00 40 1015.8
20240520221839 67 354 3.0 5.0 0.00 0.00 0.00 39 1015.9
20240520221600 66 348 2.0 5.0 0.00 0.00 0.00 37 1015.7
20240520221324 66 352 4.0 5.0 0.00 0.00 0.00 37 1015.9
20240520220832 66 58 2.0 4.0 0.00 0.00 0.00 39 1016.0
20240520220339 65 31 1.0 3.0 0.00 0.00 0.00 41 1016.1
20240520220132 64 32 1.0 3.0 0.00 0.00 0.00 41 1015.9
20240520215829 65 31 2.0 4.0 0.00 0.12 0.00 43 1016.1
20240520215330 65 46 3.0 4.0 0.00 0.12 0.00 43 1016.2
20240520214821 65 333 0.0 2.0 0.00 0.12 0.00 42 1016.2
20240520214632 65 273 0.0 2.0 0.00 0.03 0.00 42 1016.1
20240520214337 65 269 0.0 2.0 0.00 0.12 0.00 42 1016.3
20240520213818 64 248 1.0 5.0 0.00 0.12 0.00 47 1016.3
20240520213325 63 249 3.0 7.0 0.00 0.12 0.00 46 1016.3
20240520213102 63 282 3.0 7.0 0.00 0.03 0.00 48 1016.2
20240520212821 63 261 4.0 6.0 0.00 0.12 0.00 57 1016.4
20240520212320 62 226 4.0 9.0 0.00 0.12 0.00 56 1016.5
20240520211819 63 238 8.0 9.0 0.00 0.12 0.00 56 1016.5
20240520211611 62 239 4.0 9.0 0.00 0.03 0.00 55 1016.3
20240520211332 63 222 7.0 10.0 0.00 0.12 0.00 54 1016.5
20240520210837 63 239 5.0 7.0 0.00 0.12 0.00 52 1016.5
20240520210359 62 229 4.0 7.0 0.00 0.12 0.00 55 1016.5
20240520210109 62 242 5.0 9.0 0.00 0.03 0.00 55 1016.3
20240520205821 63 242 6.0 9.0 0.00 0.12 0.00 52 1016.5
20240520205400 63 242 8.0 10.0 0.00 0.12 0.00 51 1016.5
20240520204819 63 232 8.0 9.0 0.00 0.12 0.00 58 1016.5
20240520204329 63 246 4.0 4.0 0.00 0.12 0.00 49 1016.5
20240520203840 62 249 3.0 4.0 0.00 0.12 0.00 48 1016.5
20240520203320 61 231 2.0 3.0 0.00 0.12 0.00 54 1016.6
20240520203123 60 257 1.0 5.0 0.00 0.03 0.00 54 1016.6
20240520202819 61 272 2.0 5.0 0.00 0.12 0.00 55 1016.8
20240520202351 61 274 4.0 5.0 0.00 0.12 0.00 55 1016.8
20240520201824 61 270 5.0 6.0 0.00 0.12 0.00 54 1016.9
20240520201609 61 264 4.0 6.0 0.00 0.03 0.00 54 1016.8
20240520201329 62 250 5.0 7.0 0.00 0.12 0.00 52 1016.9
20240520200854 61 193 6.0 8.0 0.00 0.12 0.00 54 1017.1
20240520200333 61 226 6.0 8.0 0.00 0.12 0.00 53 1017.2
20240520200102 60 228 6.0 6.0 0.00 0.03 0.00 54 1017.2
20240520195852 61 246 5.0 7.0 0.00 0.12 0.00 53 1017.3
20240520195337 61 260 4.0 7.0 0.00 0.12 0.00 54 1017.4
20240520194820 60 236 8.0 8.0 0.00 0.12 0.00 55 1017.4
20240520194607 59 242 7.0 8.0 0.00 0.03 0.00 55 1017.4
20240520194321 60 257 6.0 8.0 0.00 0.12 0.00 55 1017.4
20240520193829 60 250 6.0 10.0 0.00 0.12 0.00 52 1017.5
20240520193355 59 203 9.0 10.0 0.00 0.12 0.00 60 1017.6
20240520193003 59 239 9.0 11.0 0.00 0.03 0.00 57 1017.5
20240520192825 60 232 8.0 8.0 0.00 0.12 0.00 56 1017.6
20240520192355 59 231 7.0 7.0 0.00 0.12 0.00 57 1017.6
20240520191838 59 241 5.0 6.0 0.00 0.12 0.00 56 1017.7
20240520191617 59 228 4.0 7.0 0.00 0.03 0.00 54 1017.7
20240520191323 59 233 4.0 8.0 0.00 0.12 0.00 54 1017.9
20240520190823 58 222 6.0 8.0 0.00 0.12 0.00 60 1018.0
20240520190329 58 238 8.0 9.0 0.00 0.12 0.00 58 1018.0
20240520190114 58 246 7.0 9.0 0.00 0.03 0.00 57 1017.9
20240520185827 59 231 6.0 9.0 0.00 0.12 0.00 57 1018.1
20240520185350 58 225 7.0 9.0 0.00 0.12 0.00 59 1018.3
20240520184836 58 241 7.0 9.0 0.00 0.12 0.00 60 1018.2
20240520184614 58 243 5.0 8.0 0.00 0.03 0.00 59 1018.3
20240520184332 58 242 7.0 8.0 0.00 0.12 0.00 60 1018.4
20240520183334 58 239 5.0 8.0 0.00 0.12 0.00 57 1018.6
20240520183006 57 236 4.0 8.0 0.00 0.03 0.00 57 1018.6
20240520182826 58 211 5.0 8.0 0.00 0.12 0.00 57 1018.6
20240520182337 57 221 4.0 6.0 0.00 0.12 0.00 60 1018.7
20240520181832 56 243 6.0 6.0 0.00 0.12 0.00 60 1018.8
20240520181603 56 246 5.0 6.0 0.00 0.03 0.00 63 1018.8
20240520181335 56 246 5.0 5.0 0.00 0.12 0.00 62 1018.9
20240520180822 56 246 4.0 5.0 0.00 0.12 0.00 62 1019.0
20240520180338 56 249 5.0 5.0 0.00 0.12 0.00 61 1019.0
20240520180104 55 246 4.0 5.0 0.00 0.03 0.00 62 1019.0
20240520175820 56 232 4.0 5.0 0.00 0.12 0.00 62 1019.0
20240520175331 55 245 4.0 5.0 0.00 0.12 0.00 65 1019.1
20240520174833 55 248 4.0 5.0 0.00 0.12 0.00 64 1019.1
20240520174607 55 246 4.0 5.0 0.00 0.03 0.00 62 1019.1
20240520174329 55 245 4.0 5.0 0.00 0.12 0.00 61 1019.2
20240520173832 55 257 3.0 4.0 0.00 0.12 0.00 65 1019.3
20240520173320 55 255 3.0 3.0 0.00 0.12 0.00 63 1019.3
20240520173000 54 278 1.0 3.0 0.00 0.03 0.00 62 1019.3
20240520172823 55 264 2.0 3.0 0.00 0.12 0.00 64 1019.4
20240520172328 55 247 3.0 3.0 0.00 0.12 0.00 66 1019.4
20240520171839 55 276 2.0 4.0 0.00 0.12 0.00 67 1019.4
20240520171617 54 266 3.0 4.0 0.00 0.03 0.00 67 1019.4
20240520171323 54 249 4.0 4.0 0.00 0.12 0.00 64 1019.5
20240520170822 54 250 4.0 5.0 0.00 0.12 0.00 66 1019.5
20240520170329 54 241 4.0 5.0 0.00 0.12 0.00 67 1019.6
20240520170110 53 246 4.0 5.0 0.00 0.03 0.00 68 1019.5
20240520165830 54 249 4.0 5.0 0.00 0.12 0.00 64 1019.6
20240520165323 53 251 4.0 5.0 0.00 0.12 0.00 66 1019.7
20240520164836 53 245 5.0 6.0 0.00 0.12 0.00 65 1019.7
20240520164606 53 236 5.0 7.0 0.00 0.03 0.00 65 1019.7
20240520164339 53 242 5.0 7.0 0.00 0.12 0.00 66 1019.7
20240520163821 53 248 6.0 7.0 0.00 0.12 0.00 66 1019.8
20240520163322 53 189 5.0 7.0 0.00 0.12 0.00 67 1019.8
20240520163058 53 219 4.0 6.0 0.00 0.03 0.00 67 1019.8
20240520162834 53 239 5.0 6.0 0.00 0.12 0.00 68 1019.8
20240520162332 53 216 5.0 5.0 0.00 0.12 0.00 67 1019.9
20240520161825 53 228 4.0 4.0 0.00 0.12 0.00 66 1019.9
20240520161509 53 259 2.0 3.0 0.00 0.03 0.00 66 1020.0
20240520161329 53 249 3.0 3.0 0.00 0.12 0.00 65 1020.0
20240520160846 53 255 2.0 5.0 0.00 0.12 0.00 65 1020.1
20240520160327 54 271 3.0 4.0 0.00 0.12 0.00 64 1020.1
20240520160104 53 284 1.0 3.0 0.00 0.03 0.00 63 1020.1
20240520155822 54 333 1.0 2.0 0.00 0.12 0.00 62 1020.2
20240520155335 53 348 1.0 2.0 0.00 0.12 0.00 63 1020.2
20240520154824 53 334 1.0 3.0 0.00 0.12 0.00 64 1020.2
20240520154511 52 347 1.0 4.0 0.00 0.03 0.00 64 1020.3
20240520154333 53 13 1.0 4.0 0.00 0.12 0.00 64 1020.3
20240520153900 53 30 1.0 3.0 0.00 0.12 0.00 64 1020.4
20240520153319 52 318 1.0 2.0 0.00 0.12 0.00 64 1020.5
20240520153103 52 305 0.0 1.0 0.00 0.03 0.00 64 1020.5
20240520152859 52 280 0.0 1.0 0.00 0.12 0.00 65 1020.5
20240520152320 52 276 1.0 2.0 0.00 0.12 0.00 64 1020.6
20240520151835 52 283 1.0 2.0 0.00 0.12 0.00 64 1020.6
20240520151334 52 290 1.0 3.0 0.00 0.12 0.00 65 1020.6
20240520150834 53 328 1.0 2.0 0.00 0.12 0.00 64 1020.6
20240520150322 53 329 1.0 2.0 0.00 0.12 0.00 64 1020.6
20240520150017 52 338 0.0 1.0 0.00 0.03 0.00 63 1020.7
20240520145840 53 328 0.0 1.0 0.00 0.12 0.00 64 1020.6
20240520145400 52 255 0.0 2.0 0.00 0.12 0.00 67 1020.6
20240520144828 51 255 1.0 2.0 0.00 0.12 0.00 68 1020.6
20240520144615 51 255 0.0 2.0 0.00 0.03 0.00 67 1020.7
20240520144340 52 262 0.0 1.0 0.00 0.12 0.00 67 1020.6
20240520143836 51 253 0.0 1.0 0.00 0.12 0.00 68 1020.6
20240520143319 51 290 0.0 1.0 0.00 0.12 0.00 68 1020.6
20240520143110 51 75 0.0 1.0 0.00 0.03 0.00 68 1020.6
20240520142901 51 75 0.0 3.0 0.00 0.12 0.00 69 1020.5
20240520142319 49 77 0.0 3.0 0.00 0.12 0.00 71 1020.6
20240520141834 49 26 2.0 3.0 0.00 0.12 0.00 72 1020.6
20240520141619 48 54 0.0 4.0 0.00 0.03 0.00 72 1020.7
20240520141326 48 64 3.0 4.0 0.00 0.12 0.00 73 1020.7
20240520140829 48 42 2.0 4.0 0.00 0.12 0.00 74 1020.6
20240520140333 48 23 4.0 5.0 0.00 0.12 0.00 73 1020.6
20240520140142 48 27 2.0 4.0 0.00 0.03 0.00 73 1020.7
20240520135851 48 60 2.0 3.0 0.00 0.12 0.00 72 1020.6
20240520135340 48 110 1.0 3.0 0.00 0.12 0.00 73 1020.6
20240520134835 47 98 1.0 3.0 0.00 0.12 0.00 74 1020.6
20240520134606 46 93 0.0 4.0 0.00 0.03 0.00 75 1020.6
20240520134358 46 79 2.0 4.0 0.00 0.12 0.00 75 1020.5
20240520133848 46 76 3.0 5.0 0.00 0.12 0.00 75 1020.4
20240520133345 46 66 3.0 5.0 0.00 0.12 0.00 76 1020.4
20240520133134 46 40 2.0 5.0 0.00 0.03 0.00 76 1020.5
20240520132827 46 54 3.0 6.0 0.00 0.12 0.00 77 1020.4
20240520132335 46 47 4.0 7.0 0.00 0.12 0.00 78 1020.4
20240520131846 46 34 7.0 7.0 0.00 0.12 0.00 77 1020.4
20240520131615 46 37 5.0 8.0 0.00 0.03 0.00 76 1020.4
20240520131321 47 42 3.0 4.0 0.00 0.12 0.00 75 1020.4
20240520130833 46 46 2.0 4.0 0.00 0.12 0.00 76 1020.4
20240520130326 45 96 1.0 4.0 0.00 0.12 0.00 77 1020.4
20240520125819 45 108 2.0 3.0 0.00 0.12 0.00 78 1020.4
20240520125321 44 86 1.0 2.0 0.00 0.12 0.00 80 1020.3
20240520124833 43 90 1.0 2.0 0.00 0.12 0.00 80 1020.2
20240520124603 43 91 0.0 2.0 0.00 0.03 0.00 80 1020.2
20240520124351 43 60 1.0 2.0 0.00 0.12 0.00 80 1020.2
20240520123827 43 70 1.0 3.0 0.00 0.12 0.00 80 1020.1
20240520123356 43 78 2.0 3.0 0.00 0.12 0.00 80 1020.1
20240520122822 43 42 2.0 3.0 0.00 0.12 0.00 79 1020.1
20240520121824 43 85 2.0 4.0 0.00 0.12 0.00 79 1020.1
20240520121625 43 77 2.0 4.0 0.00 0.03 0.00 79 1020.1
20240520121340 43 56 1.0 3.0 0.00 0.12 0.00 79 1020.0
20240520120821 43 65 1.0 2.0 0.00 0.12 0.00 79 1019.9
20240520120337 44 34 2.0 2.0 0.00 0.12 0.00 80 1019.9
20240520120134 43 34 0.0 3.0 0.00 0.03 0.00 79 1020.0
20240520115819 44 90 1.0 3.0 0.00 0.12 0.00 78 1019.9
20240520115340 44 47 2.0 3.0 0.00 0.12 0.00 78 1019.9
20240520114838 44 80 0.0 1.0 0.00 0.12 0.00 77 1019.8
20240520114629 44 81 0.0 3.0 0.00 0.03 0.00 78 1019.9
20240520114321 44 94 1.0 3.0 0.00 0.12 0.00 77 1019.9
20240520113839 44 88 2.0 4.0 0.00 0.12 0.00 78 1019.8
20240520113321 44 72 2.0 3.0 0.00 0.12 0.00 77 1019.8
20240520113113 44 75 0.0 3.0 0.00 0.03 0.00 77 1019.8
20240520112843 44 103 1.0 3.0 0.00 0.12 0.00 77 1019.7
20240520112330 45 85 2.0 2.0 0.00 0.12 0.00 77 1019.7
20240520111831 45 31 1.0 2.0 0.00 0.12 0.00 78 1019.7
20240520111617 44 54 0.0 1.0 0.00 0.03 0.00 78 1019.8
20240520111328 45 56 0.0 2.0 0.00 0.12 0.00 75 1019.7
20240520110831 46 56 1.0 3.0 0.00 0.12 0.00 74 1019.7
20240520110322 46 43 2.0 5.0 0.00 0.12 0.00 74 1019.7
20240520110110 45 54 1.0 5.0 0.00 0.03 0.00 74 1019.7
20240520105835 46 90 3.0 5.0 0.00 0.12 0.00 75 1019.7